Location: Winnipeg
(49.8830°N, 97.1670°W)
Time: 19:42:32
(UTC-06:00)

Envisat - Pass Details

Date: 06 December 2022
Orbit: 763 x 765 km, 98.2° (Epoch: 28 January)

Event Time Altitude Azimuth Distance (km) Brightness Sun altitude
Rises 06:26:47 0° 3° (N) 3,246 6.1 -15.9°
Reaches altitude 10° 06:29:43 10° 346° (NNW) 2,315 5.2 -15.5°
Enters shadow 06:31:49 17° 323° (NW) 1,874 4.5 -15.2°
